Asuncion, Paraguay

10:50 PM -03 en Diciembre 12, 2017 (GMT -0300)
Silvio Pettirossi International

Tiempo Historia de SGAS - Diciembre, 2017

Change the Weather History Date:

Jueves, Diciembre 7, 2017

  Actual Average Record
Temperature  
Temperatura media 84 ° F -  
Temperatura máxima 93 ° F 90 ° F 98 ° F (2008)
Temperatura mínima 76 ° F 71 ° F 60 ° F (2003)
Cooling Degree Days 20    
Growing Degree Days 34 (Base 50)    
Moisture  
Punto de rocío 73 ° F    
Average Humidity 71    
Maximum Humidity 94    
Minimum Humidity 41    
Precipitación  
Precipitación 0.00 pul 0.18 pul - ()
Presión al nivel del mar  
Presión al nivel del mar 29.74 pul    
Viento  
Velocidad del viento 3 mph ()    
Velocidad máxima del viento 14 mph    
Max Gust Speed -    
Visibilidad 7.2 Millas    
Eventos Tormenta    
Averages and records for this station are not official NWS values.
T = Trace of Precipitation, MM = Missing Value Source: Averaged Metar Reports

Daily Weather History Graph

Daily Weather History Graph

Search for Another Location

Airport or City:

Trip Planner

Search our weather history database for the weather conditions in past years. The results will help you decide how hot, cold, wet, or windy it might be!

Date:

Astronomía

Dec. 07, 2017 Salida Puesta
Hora real 5:52 AM -03 7:31 PM -03
Crepúsculo civil 5:26 AM -03 7:57 PM -03
Crepúsculo náutico 4:55 AM -03 8:27 PM -03
Crepúsculo astronómico 4:23 AM -03 9:00 PM -03
Luna 11:33 PM -03 (12/7) 9:57 AM -03 (12/7)
Horas de luz 14h 30m
Horas de luz
13h 39m
Gibosa menguante, 79% of the Moon is Illuminated
Dic 7
Gibosa menguante
Dic 10
Cuarto menguante
Dic 18
Nueva
Dic 26
Cuarto creciente
Ene 1
Luna llena

Hourly Weather History & Observations

Hora (-03) Temp. Índice de calor Punto de rocío Humedad Presión Visibilidad Wind Dir Velocidad del viento Velocidad de ráfagas Precip Eventos Condiciones
12:00 AM 78 ° F - 74 ° F 83% 29.80 pul 12 mi Sin viento Sin viento - -   Parcialmente nublado
12:00 AM 78.8 ° F - 73.4 ° F 83% 29.77 pul 6.2 mi Sin viento Sin viento - N/A Tormenta Parcialmente nublado
1:00 AM 77.0 ° F - 73.4 ° F 89% 29.77 pul 6.2 mi SSO 3.5 mph - N/A Tormenta Parcialmente nublado
2:00 AM 77.0 ° F - 73.4 ° F 89% 29.77 pul 6.2 mi SE 5.8 mph - N/A   Muy nublado
3:00 AM 77 ° F - 74 ° F 89% 29.77 pul 12 mi Sur 2.3 mph - -   Parcialmente nublado
3:00 AM 77.0 ° F - 73.4 ° F 89% 29.77 pul 6.2 mi Sur 2.3 mph - N/A   Muy nublado
4:00 AM 77.0 ° F - 75.2 ° F 94% 29.74 pul 6.2 mi Sin viento Sin viento - N/A   Muy nublado
5:00 AM 77.0 ° F - 75.2 ° F 94% 29.74 pul 6.2 mi Sin viento Sin viento - N/A   Muy nublado
6:00 AM 76 ° F - 75 ° F 94% 29.77 pul 7 mi Sin viento Sin viento - -   Neblina
6:00 AM 75.2 ° F - 73.4 ° F 94% 29.77 pul - Sin viento Sin viento - N/A   Despejado
7:00 AM 77.0 ° F - 75.2 ° F 94% 29.77 pul 6.2 mi Sin viento Sin viento - N/A   Muy nublado
8:00 AM 82.4 ° F 89.5 ° F 75.2 ° F 79% 29.80 pul 6.2 mi Sin viento Sin viento - N/A   Parcialmente nublado
8:30 AM 82.4 ° F 89.5 ° F 75.2 ° F 79% 29.80 pul 6.2 mi Sin viento Sin viento - N/A   Muy nublado
9:00 AM 82 ° F - 75 ° F 73% 29.81 pul 12 mi Sin viento Sin viento - -   Muy nublado
9:00 AM 82.4 ° F 89.5 ° F 75.2 ° F 79% 29.80 pul 6.2 mi Sin viento Sin viento - N/A   Muy nublado
9:30 AM 84.2 ° F 94.1 ° F 77.0 ° F 79% 29.80 pul 6.2 mi Variable 3.5 mph - N/A   Muy nublado
10:00 AM 86.0 ° F 95.1 ° F 75.2 ° F 70% 29.80 pul 6.2 mi SSO 8.1 mph - N/A   Muy nublado
10:30 AM 87.8 ° F 95.6 ° F 73.4 ° F 62% 29.77 pul 6.2 mi Variable 4.6 mph - N/A   Muy nublado
11:00 AM 87.8 ° F 97.6 ° F 75.2 ° F 66% 29.77 pul 6.2 mi Variable 2.3 mph - N/A   Nubes dispersas
12:00 PM 90 ° F - 74 ° F 51% 29.77 pul 12 mi Sur 6.9 mph - -   Muy nublado
12:00 PM 89.6 ° F 98.2 ° F 73.4 ° F 59% 29.74 pul 6.2 mi Variable 5.8 mph - N/A   Muy nublado
1:00 PM 91.4 ° F 102.5 ° F 75.2 ° F 59% 29.74 pul 6.2 mi Variable 8.1 mph - N/A   Parcialmente nublado
2:00 PM 89.6 ° F 98.2 ° F 73.4 ° F 59% 29.71 pul 6.2 mi Sur 8.1 mph - N/A   Parcialmente nublado
3:00 PM 93 ° F - 72 ° F 41% 29.72 pul 12 mi Sur 10.4 mph - -   Muy nublado
3:00 PM 93.2 ° F 102.4 ° F 73.4 ° F 52% 29.68 pul 6.2 mi Sur 11.5 mph - N/A   Parcialmente nublado
4:00 PM 93.2 ° F 97.7 ° F 68.0 ° F 44% 29.65 pul 6.2 mi SSO 13.8 mph - N/A   Parcialmente nublado
5:00 PM 91.4 ° F 96.8 ° F 69.8 ° F 49% 29.65 pul 6.2 mi Sur 11.5 mph - N/A   Parcialmente nublado
6:00 PM 90 ° F - 71 ° F 43% 29.71 pul 12 mi Sur 10.4 mph - -   Parcialmente nublado
6:00 PM 89.6 ° F 96.2 ° F 71.6 ° F 55% 29.65 pul 6.2 mi Sur 11.5 mph - N/A   Parcialmente nublado
7:00 PM 89.6 ° F 96.2 ° F 71.6 ° F 55% 29.65 pul 6.2 mi SSO 8.1 mph - N/A   Parcialmente nublado
8:00 PM 86.0 ° F 91.8 ° F 71.6 ° F 62% 29.65 pul 5.6 mi Sur 5.8 mph - N/A   Parcialmente nublado
9:00 PM 85 ° F - 70 ° F 53% 29.70 pul 6 mi Sur 5.8 mph - -   Humo
9:00 PM 82.4 ° F 87.2 ° F 71.6 ° F 70% 29.68 pul 5.6 mi Sur 5.8 mph - N/A   Desconocido
10:00 PM 82.4 ° F 87.2 ° F 71.6 ° F 70% 29.71 pul 5.6 mi SSE 3.5 mph - N/A   Desconocido
11:00 PM 80.6 ° F 85.4 ° F 73.4 ° F 79% 29.71 pul 5.6 mi SSE 4.6 mph - N/A   Desconocido